Medford, OR

12:54 AM PST on November 18, 2017 (GMT -0800)
Rogue Valley International-Medford

Weather History for KMFR - July, 2013

Change the Weather History Date:

Wednesday, July 31, 2013

  Actual Average Record
Temperature  
Mean Temperature 76 °F 76 °F  
Max Temperature 87 °F 93 °F 109 °F (2015)
Min Temperature 65 °F 59 °F 43 °F (1975)
Degree Days  
Heating Degree Days 0 0  
Month to date heating degree days 0 1  
Since 1 June heating degree days 35 60  
Since 1 July heating degree days 0 6  
Cooling Degree Days 11 11  
Month to date cooling degree days 437 286  
Year to date cooling degree days 618 432  
Since 1 June cooling degree days 583 394  
Growing Degree Days 26 (Base 50)    
Moisture  
Dew Point 51 °F    
Average Humidity 41    
Maximum Humidity 58    
Minimum Humidity 24    
Precipitation  
Precipitation 0.00 in 0.01 in 0.14 in (1964)
Month to date precipitation 0.00 0.28  
Year to date precipitation 4.13 9.74  
Snow  
Snow 0.00 in 0.00 in - ()
Month to date snowfall 0.0 0.0  
Since 1 July snowfall 0.0 0.0  
Snow Depth 0.00 in    
Sea Level Pressure  
Sea Level Pressure 30.01 in    
Wind  
Wind Speed 6 mph (NW)    
Max Wind Speed 17 mph    
Max Gust Speed 22 mph    
Visibility 3 miles    
Events      
T = Trace of Precipitation, MM = Missing Value Source: NWS Daily Summary

Daily Weather History Graph

Daily Weather History Graph

Search for Another Location

Airport or City:

Trip Planner

Search our weather history database for the weather conditions in past years. The results will help you decide how hot, cold, wet, or windy it might be!

Date:

Astronomy

Jul. 31, 2013 Rise Set
Actual Time 6:03 AM PDT 8:31 PM PDT
Civil Twilight 5:31 AM PDT 9:03 PM PDT
Nautical Twilight 4:51 AM PDT 9:42 PM PDT
Astronomical Twilight 4:07 AM PDT 10:27 PM PDT
Moon 1:02 AM PDT (7/31) 3:53 PM PDT (7/31)
Length of Visible Light 15h 32m
Length of Day
14h 28m
Waning Crescent, 31% of the Moon is Illuminated
Jul 31
Waning Crescent
Aug 6
New
Aug 14
First Quarter
Aug 20
Full
Aug 28
Last Quarter

Hourly Weather History & Observations

Time (PDT) Temp. Dew Point Humidity Pressure Visibility Wind Dir Wind Speed Gust Speed Precip Events Conditions
12:53 AM 73.0 °F 51.1 °F 46% 30.04 in 4.0 mi NW 3.5 mph - N/A   Haze
1:53 AM 72.0 °F 51.1 °F 48% 30.04 in 3.0 mi WNW 5.8 mph - N/A   Haze
2:08 AM 71.6 °F 51.8 °F 50% 30.07 in 2.5 mi Calm Calm - N/A   Haze
2:50 AM 69.8 °F 51.8 °F 53% 30.07 in 1.5 mi WSW 3.5 mph - N/A   Haze
2:53 AM 70.0 °F 52.0 °F 53% 30.04 in 1.5 mi WSW 4.6 mph - N/A   Haze
3:45 AM 69.8 °F 51.8 °F 53% 30.06 in 2.0 mi Calm Calm - N/A   Haze
3:53 AM 69.1 °F 52.0 °F 54% 30.02 in 2.5 mi NW 4.6 mph - N/A   Haze
4:09 AM 69.8 °F 50.0 °F 49% 30.06 in 3.0 mi NW 3.5 mph - N/A   Haze
4:53 AM 66.0 °F 48.9 °F 54% 30.03 in 5.0 mi East 5.8 mph - N/A   Haze
5:53 AM 66.9 °F 50.0 °F 54% 30.03 in 3.0 mi Calm Calm - N/A   Haze
6:32 AM 68.0 °F 51.8 °F 56% 30.06 in 2.0 mi Calm Calm - N/A   Haze
6:53 AM 66.0 °F 51.1 °F 59% 30.02 in 2.0 mi ENE 3.5 mph - N/A   Haze
7:42 AM 66.2 °F 51.8 °F 60% 30.06 in 2.0 mi NNW 3.5 mph - N/A   Haze
7:53 AM 66.9 °F 52.0 °F 59% 30.03 in 2.0 mi Calm Calm - N/A   Haze
8:53 AM 69.1 °F 51.1 °F 53% 30.02 in 2.0 mi Calm Calm - N/A   Haze
9:53 AM 69.1 °F 52.0 °F 54% 30.02 in 2.0 mi West 9.2 mph - N/A   Haze
10:53 AM 73.9 °F 52.0 °F 46% 30.01 in 2.0 mi West 8.1 mph - N/A   Haze
11:51 AM 77.0 °F 51.8 °F 41% 30.03 in 0.5 mi Calm Calm - N/A   Haze
11:53 AM 77.0 °F 52.0 °F 42% 30.00 in 0.5 mi North 3.5 mph - N/A   Haze
12:53 PM 79.0 °F 52.0 °F 39% 29.98 in 0.5 mi Calm Calm - N/A   Haze
1:53 PM 82.0 °F 51.1 °F 34% 29.96 in 0.5 mi NW 6.9 mph - N/A   Smoke
2:53 PM 84.0 °F 46.9 °F 27% 29.94 in 0.5 mi WNW 13.8 mph 19.6 mph N/A   Smoke
3:53 PM 86.0 °F 46.9 °F 26% 29.93 in 0.8 mi WNW 11.5 mph - N/A   Smoke
4:53 PM 87.1 °F 46.0 °F 24% 29.92 in 1.0 mi WNW 9.2 mph - N/A   Smoke
5:53 PM 84.9 °F 50.0 °F 30% 29.92 in 0.8 mi NNW 8.1 mph - N/A   Smoke
6:53 PM 82.0 °F 52.0 °F 35% 29.93 in 3.0 mi NNW 8.1 mph - N/A   Smoke
7:53 PM 78.1 °F 53.1 °F 42% 29.96 in 4.0 mi North 10.4 mph - N/A   Smoke
8:53 PM 75.0 °F 53.1 °F 46% 29.98 in 6.0 mi NNW 5.8 mph - N/A   Smoke
9:53 PM 72.0 °F 52.0 °F 49% 30.01 in 10.0 mi WNW 3.5 mph - N/A   Smoke
10:53 PM 69.1 °F 51.1 °F 53% 30.00 in 10.0 mi North 3.5 mph - N/A   Smoke
11:53 PM 66.9 °F 51.1 °F 57% 30.00 in 3.0 mi NW 5.8 mph - N/A   Smoke